Location: Gisborne
(38.6530°S, 178.0040°E)
Time: 20:53:12
(UTC+12:00)

Atlas Centaur 2 - Pass Details

Date: 24 January 2019
Orbit: 459 x 1311 km, 30.4° (Epoch: 21 April)

Event Time Altitude Azimuth Distance (km) Brightness Sun altitude
Rises 22:23:06 0° 286° (WNW) 4,215 6.2 -18.8°
Reaches altitude 10° 22:26:06 10° 291° (WNW) 3,298 5.5 -19.2°
Maximum altitude 22:34:11 48° 2° (N) 1,652 3.3 -20.3°
Enters shadow 22:37:42 32° 53° (NE) 2,055 3.6 -20.8°
